When you browse on this site, cookies collect data to enhance your experience and personalize the content and advertising you see.
Visit our Privacy Policy to learn more. By continuing to use the site, you agree to this use of cookies and data.
  • In Czech Republic
  • List of Countries
  • For 7 days
  • Water Temperature
  • Satellite Maps
  • Weather Map
  • Weather Widgets
  • user-avatar
    Login

    Hourly Weather Cherstvyady

    Today, 17 February, Sunday

    Time Temperature Precipitation Wind Pressure Humidity
    00:00 -1°C° 0 mm 6 mps 747 mmHg 76%
    01:00 -1°C° 0 mm 6 mps 747 mmHg 77%
    02:00 +1°C° 0 mm 6 mps 746 mmHg 77%
    03:00 +1°C° 0 mm 6 mps 746 mmHg 80%
    04:00 -1°C° 0 mm 6 mps 746 mmHg 82%
    05:00 -1°C° 0 mm 6 mps 745 mmHg 85%
    06:00 -1°C° 0 mm 6 mps 745 mmHg 87%
    07:00 0°C° 0 mm 5 mps 746 mmHg 89%
    08:00 0°C° 0 mm 5 mps 746 mmHg 91%
    09:00 +1°C° 0 mm 6 mps 746 mmHg 89%
    10:00 +1°C° 0 mm 6 mps 746 mmHg 87%
    11:00 +2°C° 0 mm 6 mps 747 mmHg 86%
    12:00 +2°C° 0 mm 6 mps 747 mmHg 80%
    13:00 +2°C° 0 mm 6 mps 747 mmHg 75%
    14:00 +2°C° 0 mm 6 mps 748 mmHg 69%
    15:00 +1°C° 0 mm 5 mps 748 mmHg 71%
    16:00 0°C° 0 mm 5 mps 749 mmHg 73%
    17:00 -1°C° 0 mm 5 mps 749 mmHg 74%
    18:00 -1°C° 0 mm 5 mps 750 mmHg 77%
    19:00 -2°C° 0 mm 4 mps 750 mmHg 79%
    20:00 -2°C° 0 mm 4 mps 750 mmHg 82%
    21:00 -3°C° 0 mm 4 mps 751 mmHg 83%
    22:00 -3°C° 0 mm 4 mps 751 mmHg 85%
    23:00 -2°C° 0 mm 3 mps 752 mmHg 87%

    Tomorrow, 18 February, Monday

    Time Temperature Precipitation Wind Pressure Humidity
    00:00 -4°C° 0 mm 3 mps 752 mmHg 87%
    01:00 -4°C° 0 mm 3 mps 753 mmHg 88%
    02:00 -4°C° 0 mm 3 mps 753 mmHg 89%
    03:00 -4°C° 0 mm 3 mps 754 mmHg 89%
    04:00 -5°C° 0 mm 3 mps 754 mmHg 89%
    05:00 -5°C° 0 mm 3 mps 754 mmHg 89%
    06:00 -4°C° 0 mm 2 mps 755 mmHg 88%
    07:00 -4°C° 0 mm 2 mps 755 mmHg 87%
    08:00 -4°C° 0 mm 2 mps 756 mmHg 86%
    09:00 -3°C° 0 mm 2 mps 756 mmHg 78%
    10:00 -3°C° 0 mm 2 mps 756 mmHg 71%
    11:00 -2°C° 0 mm 2 mps 756 mmHg 64%
    12:00 -1°C° 0 mm 2 mps 756 mmHg 59%
    13:00 +1°C° 0 mm 1 mps 756 mmHg 55%
    14:00 +2°C° 0 mm 1 mps 757 mmHg 51%
    15:00 +1°C° 0 mm 1 mps 757 mmHg 54%
    16:00 0°C° 0 mm 1 mps 756 mmHg 58%
    17:00 -1°C° 0 mm 0 mps 756 mmHg 62%
    18:00 0°C° 0 mm 1 mps 756 mmHg 63%
    19:00 -1°C° 0 mm 1 mps 756 mmHg 65%
    20:00 -3°C° 0 mm 2 mps 756 mmHg 67%
    21:00 -3°C° 0 mm 2 mps 756 mmHg 68%
    22:00 -3°C° 0 mm 2 mps 756 mmHg 69%
    23:00 -4°C° 0 mm 3 mps 756 mmHg 71%

    Day after tomorrow, 19 February, Tuesday

    Time Temperature Precipitation Wind Pressure Humidity
    00:00 -4°C° 0 mm 3 mps 756 mmHg 71%
    01:00 -4°C° 0 mm 3 mps 756 mmHg 71%
    02:00 -4°C° 0 mm 4 mps 755 mmHg 71%
    03:00 -4°C° 0 mm 4 mps 755 mmHg 70%
    04:00 -4°C° 0 mm 4 mps 754 mmHg 69%
    05:00 -4°C° 0 mm 4 mps 754 mmHg 69%
    06:00 -4°C° 0 mm 4 mps 753 mmHg 69%
    07:00 -5°C° 0 mm 5 mps 753 mmHg 68%
    08:00 -5°C° 0 mm 5 mps 753 mmHg 68%
    09:00 -4°C° 0 mm 5 mps 752 mmHg 66%
    10:00 -1°C° 0 mm 5 mps 752 mmHg 63%
    11:00 -1°C° 0 mm 6 mps 751 mmHg 61%
    12:00 -1°C° 0 mm 6 mps 750 mmHg 62%
    13:00 +1°C° 0 mm 6 mps 750 mmHg 63%
    14:00 +2°C° 0 mm 6 mps 749 mmHg 64%
    15:00 +1°C° 0 mm 6 mps 748 mmHg 69%
    16:00 +1°C° 0 mm 6 mps 748 mmHg 73%
    17:00 0°C° 0 mm 5 mps 747 mmHg 77%
    18:00 0°C° 0 mm 5 mps 747 mmHg 80%
    19:00 0°C° 0 mm 5 mps 746 mmHg 83%
    20:00 0°C° 0 mm 5 mps 745 mmHg 86%
    21:00 0°C° 0 mm 5 mps 745 mmHg 87%
    22:00 0°C° 0 mm 5 mps 744 mmHg 88%
    23:00 0°C° 0 mm 5 mps 744 mmHg 90%

    20 February, Wednesday

    Time Temperature Precipitation Wind Pressure Humidity
    00:00 0°C° 0.1 mm 5 mps 744 mmHg 90%
    01:00 0°C° 0.1 mm 5 mps 743 mmHg 90%
    02:00 0°C° 0.1 mm 5 mps 743 mmHg 90%
    03:00 0°C° 0.1 mm 5 mps 743 mmHg 90%
    04:00 0°C° 0.1 mm 4 mps 743 mmHg 90%
    05:00 0°C° 0.1 mm 4 mps 743 mmHg 91%
    06:00 0°C° 0 mm 5 mps 743 mmHg 91%
    07:00 0°C° 0 mm 5 mps 743 mmHg 91%
    08:00 0°C° 0 mm 5 mps 743 mmHg 91%
    09:00 +1°C° 0.1 mm 5 mps 743 mmHg 88%
    10:00 +1°C° 0.1 mm 6 mps 743 mmHg 86%
    11:00 +2°C° 0.1 mm 6 mps 742 mmHg 83%
    12:00 +2°C° 0.1 mm 6 mps 742 mmHg 83%
    13:00 +2°C° 0.1 mm 6 mps 742 mmHg 82%
    14:00 +2°C° 0.1 mm 7 mps 742 mmHg 82%
    15:00 +1°C° 0.1 mm 6 mps 742 mmHg 82%
    16:00 +1°C° 0.1 mm 6 mps 743 mmHg 82%
    17:00 +1°C° 0.1 mm 6 mps 743 mmHg 82%
    18:00 -1°C° 0.1 mm 6 mps 743 mmHg 78%
    19:00 -2°C° 0.1 mm 6 mps 743 mmHg 75%
    20:00 -3°C° 0.1 mm 6 mps 744 mmHg 71%
    21:00 -3°C° 0 mm 6 mps 744 mmHg 71%
    22:00 -4°C° 0 mm 7 mps 744 mmHg 71%
    23:00 -4°C° 0 mm 7 mps 745 mmHg 70%

    21 February, Thursday

    Time Temperature Precipitation Wind Pressure Humidity
    00:00 -6°C° 0 mm 7 mps 745 mmHg 69%
    01:00 -6°C° 0 mm 7 mps 746 mmHg 68%
    02:00 -6°C° 0 mm 7 mps 746 mmHg 67%
    03:00 -6°C° 0 mm 7 mps 747 mmHg 66%
    04:00 -6°C° 0 mm 8 mps 747 mmHg 65%
    05:00 -6°C° 0 mm 8 mps 748 mmHg 64%
    06:00 -7°C° 0 mm 8 mps 748 mmHg 61%
    07:00 -8°C° 0 mm 8 mps 749 mmHg 58%
    08:00 -8°C° 0 mm 7 mps 750 mmHg 55%
    09:00 -8°C° 0 mm 7 mps 750 mmHg 53%
    10:00 -8°C° 0 mm 7 mps 751 mmHg 50%
    11:00 -7°C° 0 mm 7 mps 752 mmHg 47%
    12:00 -6°C° 0 mm 6 mps 752 mmHg 46%
    13:00 -6°C° 0 mm 6 mps 752 mmHg 45%
    14:00 -5°C° 0 mm 6 mps 753 mmHg 43%
    15:00 -5°C° 0 mm 5 mps 753 mmHg 45%
    16:00 -5°C° 0 mm 4 mps 753 mmHg 46%
    17:00 -5°C° 0 mm 4 mps 753 mmHg 48%
    18:00 -5°C° 0 mm 4 mps 754 mmHg 49%
    19:00 -5°C° 0 mm 3 mps 754 mmHg 50%
    20:00 -6°C° 0 mm 3 mps 755 mmHg 52%
    21:00 -6°C° 0 mm 3 mps 755 mmHg 53%
    22:00 -5°C° 0 mm 2 mps 755 mmHg 54%
    23:00 -5°C° 0 mm 2 mps 755 mmHg 55%

    22 February, Friday

    Time Temperature Precipitation Wind Pressure Humidity
    00:00 -5°C° 0 mm 2 mps 755 mmHg 56%
    01:00 -6°C° 0 mm 2 mps 755 mmHg 58%
    02:00 -6°C° 0 mm 2 mps 756 mmHg 59%
    03:00 -6°C° 0 mm 2 mps 756 mmHg 60%
    04:00 -6°C° 0 mm 2 mps 756 mmHg 60%
    05:00 -6°C° 0 mm 2 mps 756 mmHg 61%
    06:00 -7°C° 0 mm 3 mps 757 mmHg 60%
    07:00 -8°C° 0 mm 3 mps 757 mmHg 59%
    08:00 -9°C° 0 mm 4 mps 758 mmHg 59%
    09:00 -8°C° 0 mm 4 mps 758 mmHg 54%
    10:00 -8°C° 0 mm 4 mps 759 mmHg 48%
    11:00 -8°C° 0 mm 4 mps 759 mmHg 43%
    12:00 -7°C° 0 mm 4 mps 760 mmHg 41%
    13:00 -7°C° 0 mm 4 mps 760 mmHg 39%
    14:00 -5°C° 0 mm 4 mps 761 mmHg 36%
    15:00 -5°C° 0 mm 4 mps 761 mmHg 39%
    16:00 -7°C° 0 mm 4 mps 762 mmHg 42%
    17:00 -6°C° 0 mm 3 mps 763 mmHg 46%
    18:00 -6°C° 0 mm 3 mps 763 mmHg 48%
    19:00 -6°C° 0 mm 3 mps 764 mmHg 51%
    20:00 -7°C° 0 mm 3 mps 765 mmHg 53%
    21:00 -7°C° 0 mm 3 mps 765 mmHg 55%
    22:00 -7°C° 0 mm 3 mps 766 mmHg 57%
    23:00 -8°C° 0 mm 3 mps 766 mmHg 58%
    Show more